Find STARLINK-37749

NORAD ID: 799501002 Int'l Des: 2026-143C Constellation: starlink operational

現在のビュー

3D地球を読み込み中...

About STARLINK-37749

STARLINK-37749 (NORAD 799501002) is a starlink constellation satellite launched Jun 12, 2026

STARLINK-37749について

説明を読み込み中...

次回通過

Passes for default location (London). Set your location on the main map for personalized predictions.

高度履歴

Loading altitude history...

軌道要素

1 99999C 2026143C 26173.18590278 .00515640 00000-0 791220-4 0 1732
2 99999 97.2824 216.0472 0011059 275.5858 170.5166 16.03951173 10
Epoch: Jun 22, 2026 • Age: 3 hours

現在のステータス

高度 265.7 km
速度 7.75 km/s
衛星直下点 -0.59°S, 160.68°W
打ち上げ日 Jun 12, 2026
運用期間 9 days
タイプ internet

打ち上げグループ

Falcon 9 • Starlink Group 10-54 • 5 satellites

Most Searched